Regional Weather Roundup
Issued by NWS

Home | Current Version | Previous Version | Graphics & Text | Print | Product List | Glossary On
Versions: 1 2 3 4 5 6 7 8 9 10 11 12 13 14 15 16 17 18 19 20 21 22 23 24 25 26 27 28 29 30 31 32 33 34 35 36 37 38 39 40 41 42 43 44 45 46 47 48 49 50
000
ASUS45 KBOU 032307
RWRCO

WEATHER ROUNDUP FOR COLORADO
NATIONAL WEATHER SERVICE DENVER/BOULDER CO
500 PM MDT THU SEP 03 2015

NOTE: "FAIR" INDICATES FEW OR NO CLOUDS BELOW 12000 FEET WITH NO
SIGNIFICANT WEATHER AND/OR OBSTRUCTIONS TO VISIBILITY.

COZ001>005-013-030-031-040000-
...NORTHWEST COLORADO...

CITY           SKY/WX    TMP DP  RH WIND       PRES   REMARKS
CRAIG          PTSUNNY   70  49  47 E18       30.08S
HAYDEN         PTSUNNY   63  48  59 E15       30.12F
MEEKER         MOSUNNY   76  46  34 S13       30.07F
MOUNT WERNER   NOT AVBL
STEAMBOAT SPGS CLOUDY    64  46  51 NW9       30.16S
WALDEN         CLOUDY    54  46  76 E10       30.24S
$$

COZ006>008-011-040000-
...WEST CENTRAL VALLEYS...

CITY           SKY/WX    TMP DP  RH WIND       PRES   REMARKS
GRAND JUNCTION PTSUNNY   78  49  35 S17       29.96F
MONTROSE       MOSUNNY   76  50  40 SE7       30.07F
EAGLE          MOSUNNY   66  48  52 CALM      30.18F
RIFLE          MOSUNNY   73  53  49 VRB5      30.05F
DELTA          MOSUNNY   82  47  29 E6        30.02F
NUCLA          MOSUNNY   82  34  17 SW14G22   30.05F
$$

COZ017>023-064>068-040000-
...SOUTHWEST COLORADO...

CITY           SKY/WX    TMP DP  RH WIND       PRES   REMARKS
DURANGO        MOSUNNY   79  39  23 W9G20     30.10F
CORTEZ         MOSUNNY   83  38  20 SW12G21   30.04F
PAGOSA SPRINGS MOSUNNY   71  44  38 SE5       30.19F
TELLURIDE      MOSUNNY   64  46  52 W5        30.30F
WOLF CREEK PAS NOT AVBL
$$

COZ009-010-012-014-032>034-037-058>063-040000-
...CENTRAL COLORADO...

CITY           SKY/WX    TMP DP  RH WIND       PRES   REMARKS
ASPEN          PTSUNNY   62  48  60 S5        30.23F
BUENA VISTA    PTSUNNY   63  47  56 SW7G17    30.21S
COPPER MTN     HAZE      45  41  87 W16       30.48F VSB 1/4
BERTHOUD PASS  HAZE      37  28  70 NW14G26   30.52S VSB<1/4
COTTONWOOD PAS LGT RAIN  59  45  58 SW12G20   30.33F
GUNNISON       MOSUNNY   64  48  55 E5        30.24F
KREMMLING      PTSUNNY   61  46  59 CALM      30.24F
LEADVILLE      CLOUDY    53  45  74 N7        30.34F
MONARCH PASS   CLOUDY    46  41  81 SW20G25   30.58F
SALIDA         PTSUNNY   71  48  44 CALM      30.24F
SUNLIGHT       MOSUNNY   55  48  76 S5        30.42F
WILKERSON PASS CLOUDY    52  45  76 SW8       30.44F
$$

COZ069>075-040000-
...SAN LUIS VALLEY/SANGRE DE CRISTO MOUNTAINS...

CITY           SKY/WX    TMP DP  RH WIND       PRES   REMARKS
ALAMOSA        CLOUDY    67  48  50 N16       30.18R
LA VETA PASS   PTSUNNY   61  43  51 MISG      30.33F
SAGUACHE       MOSUNNY   68  48  49 W7        30.21F
$$

COZ035-036-038>040-040000-
...NORTHERN COLORADO FRONT RANGE...

CITY           SKY/WX    TMP DP  RH WIND       PRES   REMARKS
DENVER INTL AP CLOUDY    75  49  39 NW21      29.99S
DMNS CITY PARK   N/A     73  49  42 W16       30.03R
AURORA         LGT RAIN  72  50  45 NW13      30.03R
FRONT RANGE AP CLOUDY    75  48  38 W15G23    30.01R
ERIE MUNI ARPT LGT RAIN  67  57  72 NW9G16    29.99S
BOULDER MUN AP CLOUDY    70  54  56 W3        30.01S
CENTENNIAL     LGT RAIN  68  55  63 NW13G22   30.06R FOG
BROOMFIELD     PTSUNNY   72  50  46 NW18G24   30.03R
FORT COLLINS   CLOUDY    66  54  63 W16G22    30.00F
LONGMONT       CLOUDY    72  55  55 NW6       30.02R
$$

COZ041-046-047-076>085-087-088-040000-
...PIKES PEAK/PALMER DIVIDE AND SOUTHERN FOOTHILLS...

CITY           SKY/WX    TMP DP  RH WIND       PRES   REMARKS
COLO. SPRINGS  CLOUDY    75  47  36 NW22G32   30.04R
A. F. ACADEMY  DRIZZLE   66  50  55 NW9G17    30.09R
ELLICOTT       CLOUDY   N/A N/A N/A MISG      29.99F
FALCON         CLOUDY    71  48  44 MISG      30.10R
FORT CARSON    PTSUNNY   75  50  40 N15       29.99R THUNDER
LIMON          CLOUDY    84  44  24 N13       29.93F
MONUMENT HILL  LGT RAIN  63  50  63 NW10      30.11S
TRINIDAD       MOSUNNY   87  41  19 NE6       29.95F
$$

COZ042>045-048>051-090-091-040000-
...NORTHEAST COLORADO...

CITY           SKY/WX    TMP DP  RH WIND       PRES   REMARKS
GREELEY ARPT   CLOUDY    73  52  46 NW10      29.97S
AKRON          PTSUNNY   88  43  20 N13       29.89S
BURLINGTON     PTSUNNY   92  46  20 S17       29.84F
WRAY           CLOUDY    95  37  13 CALM      29.79F
STERLING       PTSUNNY   86  46  25 NW7       29.84S
HOLYOKE        CLOUDY    88  52  29 SE3       29.81F
FORT MORGAN    PTSUNNY   82  45  26 NW12      29.90F
$$

COZ086-089-092>099-040000-
...SOUTHEAST COLORADO...

CITY           SKY/WX    TMP DP  RH WIND       PRES   REMARKS
PUEBLO         PTSUNNY   91  44  19 N9        29.86F
LA JUNTA       CLOUDY    94  42  16 SW6       29.81F
LAMAR          PTSUNNY   94  44  17 S17G25    29.75F
SPRINGFIELD      N/A     92  44  19 S26       29.86F
$$



USA.gov is the U.S. government's official web portal to all federal, state and local government web resources and services.